Location: North Evanston
(42.0634°N, 87.6976°W)
Time: 13:45:27
(UTC+00:00)

Injun/Solrad 3 - Pass Details

Date: 13 May 2026
Orbit: 867 x 989 km, 66.8° (Epoch: 7 June)

Event Time Altitude Azimuth Distance (km) Brightness Sun altitude
Rises 22:04:01 0° 219° (SW) 3,500 11.4 31.3°
Reaches altitude 10° 22:06:30 10° 222° (SW) 2,580 11.0 30.8°
Maximum altitude 22:12:26 63° 303° (WNW) 1,027 9.1 29.7°
Drops below altitude 10° 22:18:38 10° 25° (NNE) 2,680 10.2 28.6°
Sets 22:21:16 0° 29° (NNE) 3,646 10.7 28.1°
